WA8SIE Weather Reports


Display with metric or nautical units.
time (UTC)temp
F
wind
direction
speed
MPH
gust
MPH
rain 1hr
in
rain 24hr
in
rain mn
in
humidity
%
barometer
mb
20260901005511 81 198 0.0 1.0 0.00 0.00 0.00 90 1012.9
20260901005012 81 198 0.0 1.0 0.00 0.00 0.00 90 1012.9
20260901004510 81 198 0.0 0.0 0.00 0.00 0.00 89 1012.9
20260901004012 81 198 0.0 0.0 0.00 0.00 0.00 89 1012.7
20260901003511 81 198 0.0 0.0 0.00 0.00 0.00 89 1012.7
20260901003011 81 198 0.0 0.0 0.00 0.00 0.00 88 1012.7
20260901002511 82 198 0.0 0.0 0.00 0.00 0.00 88 1012.5
20260901002011 82 198 0.0 0.0 0.00 0.00 0.00 87 1012.5
20260901001513 82 198 0.0 0.0 0.00 0.00 0.00 87 1012.5
20260901000510 82 198 0.0 0.0 0.00 0.00 0.00 86 1012.6
20260901000012 82 198 0.0 0.0 0.00 0.00 0.00 86 1012.6
20260831235511 82 198 0.0 0.0 0.00 0.00 0.00 86 1012.6
20260831235011 83 198 0.0 0.0 0.00 0.00 0.00 84 1012.6
20260831234511 83 198 0.0 0.0 0.00 0.00 0.00 84 1012.6
20260831234012 83 198 0.0 0.0 0.00 0.00 0.00 83 1012.6
20260831233511 83 198 0.0 3.0 0.00 0.00 0.00 83 1012.6
20260831233010 83 198 0.0 3.0 0.00 0.00 0.00 83 1012.6
20260831232510 83 198 1.0 3.0 0.00 0.00 0.00 83 1012.6
20260831232010 83 198 2.0 2.0 0.00 0.00 0.00 82 1012.6
20260831231511 84 198 0.0 0.0 0.00 0.00 0.00 81 1012.6
20260831231011 84 198 0.0 0.0 0.00 0.00 0.00 82 1012.8
20260831230511 84 198 0.0 0.0 0.00 0.00 0.00 81 1012.8
20260831230010 84 198 0.0 1.0 0.00 0.00 0.00 79 1012.8
20260831225510 84 198 0.0 1.0 0.00 0.00 0.00 78 1012.9
20260831225011 84 198 0.0 0.0 0.00 0.00 0.00 76 1012.9
20260831224511 85 198 0.0 0.0 0.00 0.00 0.00 75 1012.9
20260831223512 86 198 0.0 0.0 0.00 0.00 0.00 74 1012.9
20260831223011 86 198 0.0 0.0 0.00 0.00 0.00 73 1012.9
20260831222510 86 198 0.0 0.0 0.00 0.00 0.00 72 1013.0
20260831222010 86 198 0.0 0.0 0.00 0.00 0.00 71 1013.0
20260831221510 87 198 0.0 0.0 0.00 0.00 0.00 69 1013.0
20260831221010 87 198 0.0 0.0 0.00 0.00 0.00 69 1013.0
20260831220510 87 198 0.0 0.0 0.00 0.00 0.00 67 1013.0
20260831220011 87 198 0.0 0.0 0.00 0.00 0.00 70 1013.0
20260831215012 87 198 0.0 0.0 0.00 0.00 0.00 70 1013.2
20260831214511 87 198 0.0 0.0 0.00 0.00 0.00 67 1013.2
20260831214010 87 198 0.0 0.0 0.00 0.00 0.00 66 1013.4
20260831213510 87 198 0.0 3.0 0.00 0.00 0.00 63 1013.4
20260831213010 88 198 0.0 3.0 0.00 0.00 0.00 62 1013.4
20260831212010 89 198 0.0 6.0 0.00 0.00 0.00 60 1013.3
20260831211511 89 198 0.0 6.0 0.00 0.00 0.00 61 1013.3
20260831211010 89 181 0.0 0.0 0.00 0.00 0.00 61 1013.1
20260831210512 89 181 0.0 0.0 0.00 0.00 0.00 62 1013.1
20260831210011 89 181 0.0 1.0 0.00 0.00 0.00 60 1013.1
20260831205510 89 181 0.0 4.0 0.00 0.00 0.00 59 1013.3
20260831205011 89 181 0.0 6.0 0.00 0.00 0.00 59 1013.3
20260831204510 90 195 0.0 6.0 0.00 0.00 0.00 58 1013.3
20260831204011 90 223 0.0 5.0 0.00 0.00 0.00 56 1013.4
20260831203510 90 249 1.0 4.0 0.00 0.00 0.00 58 1013.4
20260831203012 90 297 2.0 4.0 0.00 0.00 0.00 58 1013.4
20260831202511 90 232 0.0 4.0 0.00 0.00 0.00 58 1013.5
20260831202011 90 321 3.0 4.0 0.00 0.00 0.00 58 1013.5
20260831201511 90 198 0.0 4.0 0.00 0.00 0.00 58 1013.5
20260831201011 90 197 0.0 1.0 0.00 0.00 0.00 58 1013.7
20260831200513 90 198 0.0 3.0 0.00 0.00 0.00 57 1013.7
20260831200011 90 15 1.0 3.0 0.00 0.00 0.00 59 1013.7
20260831195511 89 178 0.0 6.0 0.00 0.00 0.00 60 1013.9
20260831195011 89 177 0.0 6.0 0.00 0.00 0.00 60 1013.9
20260831194511 90 177 0.0 5.0 0.00 0.00 0.00 59 1013.9
20260831194011 90 225 0.0 5.0 0.00 0.00 0.00 60 1014.0
20260831193511 90 301 0.0 7.0 0.00 0.00 0.00 59 1014.0
20260831193011 90 210 0.0 7.0 0.00 0.00 0.00 60 1014.0
20260831192511 90 222 2.0 4.0 0.00 0.00 0.00 60 1014.2
20260831191511 90 25 0.0 3.0 0.00 0.00 0.00 60 1014.2
20260831191011 90 25 0.0 4.0 0.00 0.00 0.00 61 1014.4
20260831190511 90 27 0.0 4.0 0.00 0.00 0.00 59 1014.4
20260831190011 90 332 0.0 6.0 0.00 0.00 0.00 61 1014.4
20260831185512 90 301 0.0 6.0 0.00 0.00 0.00 61 1014.5
20260831185013 90 316 3.0 5.0 0.00 0.00 0.00 61 1014.5
20260831184513 90 193 0.0 5.0 0.00 0.00 0.00 63 1014.5
20260831184011 89 325 0.0 4.0 0.00 0.00 0.00 63 1014.6
20260831183011 88 185 0.0 6.0 0.00 0.00 0.00 64 1014.6
20260831182511 88 226 0.0 4.0 0.00 0.00 0.00 63 1014.7
20260831182011 88 274 0.0 9.0 0.00 0.00 0.00 66 1014.7
20260831181511 88 338 0.0 9.0 0.00 0.00 0.00 65 1014.7
20260831170011 86 202 0.0 3.0 0.00 0.00 0.00 69 1015.2
20260831165511 85 201 0.0 3.0 0.00 0.00 0.00 67 1015.3
20260831165011 85 202 1.0 4.0 0.00 0.00 0.00 71 1015.3
20260831164512 84 202 0.0 4.0 0.00 0.00 0.00 70 1015.3
20260831163511 84 182 0.0 9.0 0.00 0.00 0.00 71 1015.5
20260831163011 84 183 0.0 9.0 0.00 0.00 0.00 75 1015.5
20260831162511 83 193 0.0 2.0 0.00 0.00 0.00 78 1015.6
20260831162013 82 205 0.0 2.0 0.00 0.00 0.00 79 1015.6
20260831161513 82 205 0.0 2.0 0.00 0.00 0.00 81 1015.6
20260831161011 81 205 0.0 3.0 0.00 0.00 0.00 81 1015.6
20260831160511 81 205 0.0 3.0 0.00 0.00 0.00 83 1015.6
20260831160011 80 217 0.0 0.0 0.00 0.00 0.00 83 1015.6
20260831155511 80 217 0.0 0.0 0.00 0.00 0.00 83 1015.6
20260831154511 80 216 0.0 3.0 0.00 0.00 0.00 82 1015.6
20260831154011 80 217 0.0 3.0 0.00 0.00 0.00 81 1015.8
20260831153511 80 217 0.0 3.0 0.00 0.00 0.00 80 1015.8
20260831153011 80 127 0.0 0.0 0.00 0.00 0.00 80 1015.8
20260831152513 80 127 0.0 0.0 0.00 0.00 0.00 80 1015.8
20260831152011 80 127 0.0 0.0 0.00 0.00 0.00 81 1015.8
20260831151012 80 127 0.0 0.0 0.00 0.00 0.00 81 1015.9
20260831150511 80 127 0.0 0.0 0.00 0.00 0.00 81 1015.9
20260831150012 79 127 0.0 0.0 0.00 0.00 0.00 82 1015.9
20260831145511 79 127 0.0 0.0 0.00 0.00 0.00 83 1015.7
20260831145011 79 127 0.0 2.0 0.00 0.00 0.00 82 1015.7
20260831144011 78 126 0.0 3.0 0.00 0.00 0.00 85 1015.7
20260831143511 78 34 2.0 2.0 0.00 0.00 0.00 88 1015.7
20260831143012 78 14 0.0 0.0 0.00 0.00 0.00 90 1015.7
20260831142511 77 14 0.0 2.0 0.00 0.00 0.00 92 1015.5
20260831142011 76 14 0.0 2.0 0.00 0.00 0.00 92 1015.5
20260831141511 76 15 0.0 1.0 0.00 0.00 0.00 94 1015.5
20260831140011 75 14 0.0 0.0 0.00 0.00 0.00 97 1015.4
20260831135512 75 13 0.0 0.0 0.00 0.00 0.00 98 1015.5
20260831135011 74 14 0.0 3.0 0.00 0.00 0.00 99 1015.5
20260831134511 74 14 0.0 3.0 0.00 0.00 0.00 100 1015.5
20260831134011 74 8 1.0 3.0 0.00 0.00 0.00 100 1015.7
20260831133511 74 2 0.0 2.0 0.00 0.00 0.00 100 1015.7
20260831133011 74 2 0.0 2.0 0.00 0.00 0.00 100 1015.7
20260831132512 73 1 0.0 0.0 0.00 0.00 0.00 100 1015.7
20260831132010 73 1 0.0 0.0 0.00 0.00 0.00 100 1015.7
20260831131510 73 1 0.0 0.0 0.00 0.00 0.00 100 1015.7
20260831131011 73 2 0.0 0.0 0.00 0.00 0.00 100 1015.7
20260831130511 72 2 0.0 0.0 0.00 0.00 0.00 100 1015.7
20260831125011 72 1 0.0 0.0 0.00 0.00 0.00 100 1015.4
20260831124511 72 1 0.0 0.0 0.00 0.00 0.00 100 1015.4
20260831124011 72 2 0.0 0.0 0.00 0.00 0.00 100 1015.5
20260831123511 71 1 0.0 0.0 0.00 0.00 0.00 100 1015.5
20260831123011 71 1 0.0 0.0 0.00 0.00 0.00 100 1015.5
20260831122511 71 1 0.0 0.0 0.00 0.00 0.00 100 1015.5
20260831122011 71 1 0.0 0.0 0.00 0.00 0.00 100 1015.5
20260831121511 70 1 0.0 0.0 0.00 0.00 0.00 100 1015.5
20260831121010 70 1 0.0 0.0 0.00 0.00 0.00 100 1015.3
20260831120512 70 1 0.0 0.0 0.00 0.00 0.00 100 1015.3
20260831120011 70 1 0.0 0.0 0.00 0.00 0.00 100 1015.3
20260831115511 70 1 0.0 0.0 0.00 0.00 0.00 100 1015.1
20260831113511 70 1 0.0 0.0 0.00 0.00 0.00 100 1014.9
20260831113011 69 1 0.0 0.0 0.00 0.00 0.00 100 1014.9
20260831112510 69 1 0.0 0.0 0.00 0.00 0.00 100 1014.9
20260831110010 69 1 0.0 0.0 0.00 0.00 0.00 100 1014.9
20260831105511 69 1 0.0 0.0 0.00 0.00 0.00 100 1014.8
20260831104011 69 1 0.0 0.0 0.00 0.00 0.00 100 1014.8
20260831103512 69 2 0.0 0.0 0.00 0.00 0.00 100 1014.8
20260831103010 69 1 0.0 0.0 0.00 0.00 0.00 100 1014.8
20260831102510 69 1 0.0 0.0 0.00 0.00 0.00 100 1014.7
20260831102011 69 1 0.0 0.0 0.00 0.00 0.00 100 1014.7
20260831101510 69 1 0.0 0.0 0.00 0.00 0.00 100 1014.7
20260831101010 69 1 0.0 0.0 0.00 0.00 0.00 100 1014.5
20260831100010 69 1 0.0 0.0 0.00 0.00 0.00 100 1014.5
20260831095512 70 1 0.0 0.0 0.00 0.00 0.00 100 1014.4
20260831095010 70 1 0.0 0.0 0.00 0.00 0.00 100 1014.4
20260831094510 70 1 0.0 0.0 0.00 0.00 0.00 100 1014.4
20260831093510 70 1 0.0 2.0 0.00 0.00 0.00 100 1014.3
20260831093010 70 1 2.0 2.0 0.00 0.00 0.00 100 1014.3
20260831092510 70 0.0 0.0 0.00 0.00 0.00 100 1014.3
20260831092010 70 0.0 0.0 0.00 0.00 0.00 100 1014.3
20260831091010 70 0.0 0.0 0.00 0.00 0.00 100 1014.3
20260831090510 70 0.0 0.0 0.00 0.00 0.00 100 1014.3
20260831090010 70 0.0 2.0 0.00 0.00 0.00 100 1014.3
20260831085510 70 0.0 2.0 0.00 0.00 0.00 100 1014.3
20260831084510 70 0.0 0.0 0.00 0.00 0.00 100 1014.3
20260831083510 70 0.0 0.0 0.00 0.00 0.00 100 1014.2
20260831083010 71 0.0 0.0 0.00 0.00 0.00 100 1014.2
20260831082010 71 0.0 0.0 0.00 0.00 0.00 100 1014.1
20260831081510 71 0.0 0.0 0.00 0.00 0.00 100 1014.1
20260831081010 71 1 0.0 0.0 0.00 0.00 0.00 100 1013.9
20260831080512 71 0.0 0.0 0.00 0.00 0.00 100 1013.9
20260831080010 71 1 0.0 0.0 0.00 0.00 0.00 100 1013.9
20260831075011 71 0.0 0.0 0.00 0.00 0.00 100 1013.9
20260831074513 71 0.0 0.0 0.00 0.00 0.00 100 1013.9
20260831074013 71 1 0.0 0.0 0.00 0.00 0.00 100 1013.9
20260831073511 71 0.0 0.0 0.00 0.00 0.00 100 1013.9
20260831073011 71 0.0 0.0 0.00 0.00 0.00 100 1013.9
20260831072511 71 0.0 0.0 0.00 0.00 0.00 100 1013.8
20260831072011 72 1 0.0 0.0 0.00 0.00 0.00 100 1013.8
20260831071511 72 0.0 0.0 0.00 0.00 0.00 100 1013.8
20260831071011 72 0.0 0.0 0.00 0.00 0.00 100 1013.9
20260831070511 72 1 0.0 0.0 0.00 0.00 0.00 100 1013.9
20260831070011 72 1 0.0 0.0 0.00 0.00 0.00 100 1013.9
20260831065511 72 0.0 0.0 0.00 0.00 0.00 100 1014.0
20260831065011 72 0.0 0.0 0.00 0.00 0.00 100 1014.0
20260831064513 72 0.0 0.0 0.00 0.00 0.00 100 1014.0
20260831064011 72 0.0 0.0 0.00 0.00 0.00 100 1014.0
20260831063512 72 1 0.0 0.0 0.00 0.00 0.00 100 1014.0
20260831062512 72 0.0 0.0 0.00 0.00 0.00 100 1013.9
20260831062011 72 1 0.0 0.0 0.00 0.00 0.00 100 1013.9
20260831061511 72 0.0 0.0 0.00 0.00 0.00 100 1013.9
20260831061011 72 0.0 0.0 0.00 0.00 0.00 100 1014.2
20260831060511 72 0.0 0.0 0.00 0.00 0.00 100 1014.2
20260831060011 72 1 0.0 0.0 0.00 0.00 0.00 100 1014.2
20260831055511 73 0.0 0.0 0.00 0.00 0.00 100 1014.1
20260831055011 73 0.0 0.0 0.00 0.00 0.00 100 1014.1
20260831054011 73 0.0 0.0 0.00 0.00 0.00 100 1014.1
20260831052013 73 0.0 0.0 0.00 0.00 0.00 100 1014.2
20260831051511 73 0.0 0.0 0.00 0.00 0.00 100 1014.2
20260831051012 74 0.0 0.0 0.00 0.00 0.00 100 1014.3
20260831050511 74 0.0 0.0 0.00 0.00 0.00 100 1014.3
20260831050013 74 0.0 0.0 0.00 0.00 0.00 100 1014.3
20260831045011 74 0.0 0.0 0.00 0.00 0.00 100 1014.3
20260831044513 74 0.0 0.0 0.00 0.00 0.00 100 1014.3
20260831044011 74 0.0 0.0 0.00 0.00 0.00 100 1014.4
20260831043511 74 0.0 0.0 0.00 0.00 0.00 100 1014.4
20260831043012 74 0.0 0.0 0.00 0.00 0.00 100 1014.4
20260831042511 74 0.0 0.0 0.00 0.00 0.00 100 1014.4
20260831042011 74 0.0 0.0 0.00 0.00 0.00 99 1014.4
20260831040511 75 0.0 0.0 0.00 0.00 0.00 99 1014.5
20260831040011 75 1 0.0 0.0 0.00 0.00 0.00 99 1014.5
20260831035511 75 0.0 0.0 0.00 0.00 0.00 99 1014.5
20260831035011 75 1 0.0 0.0 0.00 0.00 0.00 98 1014.5
20260831034511 75 0.0 0.0 0.00 0.00 0.00 98 1014.5
20260831034012 75 0.0 0.0 0.00 0.00 0.00 98 1014.6
20260831033511 75 0.0 0.0 0.00 0.00 0.00 98 1014.6
20260831033011 75 1 0.0 0.0 0.00 0.00 0.00 98 1014.6
20260831032011 76 1 0.0 0.0 0.00 0.00 0.00 98 1014.5
20260831031511 76 0.0 0.0 0.00 0.00 0.00 98 1014.5
20260831031011 76 1 0.0 0.0 0.00 0.00 0.00 98 1014.6
20260831030511 76 1 0.0 0.0 0.00 0.00 0.00 98 1014.6
20260831030012 76 0.0 0.0 0.00 0.00 0.00 97 1014.6
20260831025011 76 0.0 0.0 0.00 0.00 0.00 97 1014.4
20260831024511 76 0.0 0.0 0.00 0.00 0.00 97 1014.4
20260831024011 76 0.0 0.0 0.00 0.00 0.00 97 1014.4
20260831023511 76 0.0 0.0 0.00 0.00 0.00 97 1014.4
20260831022512 76 0.0 0.0 0.00 0.00 0.00 97 1014.4
20260831022010 76 0.0 0.0 0.00 0.00 0.00 97 1014.4
20260831021511 76 0.0 0.0 0.00 0.00 0.00 96 1014.4
20260831021011 76 0.0 0.0 0.00 0.00 0.00 96 1014.6
20260831020510 76 0.0 0.0 0.00 0.00 0.00 96 1014.6
20260831014511 76 0.0 0.0 0.00 0.00 0.00 95 1014.6
20260831014010 76 0.0 0.0 0.00 0.00 0.00 95 1014.5
20260831013510 76 1 0.0 0.0 0.00 0.00 0.00 95 1014.5
20260831013011 77 0.0 0.0 0.00 0.00 0.00 94 1014.5
20260831012510 77 0.0 0.0 0.00 0.00 0.00 94 1014.2
20260831012010 77 0.0 0.0 0.00 0.00 0.00 94 1014.2
20260831011511 77 0.0 0.0 0.00 0.00 0.00 93 1014.2
20260831011011 77 1 0.0 0.0 0.00 0.00 0.00 93 1014.2
20260831010511 77 0.0 0.0 0.00 0.00 0.00 92 1014.2